Wetterdaten: aktuell Montag, 30.11.2020 14:20
Datum Zeit Temp. A. Feuchte A. Luftdruck Regen Wind Richtung Richtung ET Taupunkt Windchill Windben Empfang
30.11.2020 14:20 0,5 C 94 % 1020,1 hPa 0,0 l/m 13,4 km/h (3 Bft) S-SW 203 0 mm -0,4 C -3,5 C 23,5 km/h (4 Bft) 100 %
30.11.2020 14:10 0,6 C 93 % 1020,3 hPa 0,2 l/m 13,6 km/h (3 Bft) S 173 0 mm -0,4 C -3,4 C 25,5 km/h (4 Bft) 100 %
30.11.2020 14:00 0,6 C 93 % 1020,5 hPa 0,0 l/m 13,2 km/h (3 Bft) S-SW 209 0 mm -0,4 C -3,3 C 23,5 km/h (4 Bft) 97 %
30.11.2020 13:50 0,6 C 92 % 1020,8 hPa 0,0 l/m 14,9 km/h (3 Bft) S-SW 208 0 mm -0,5 C -3,7 C 27,4 km/h (4 Bft) 100 %
30.11.2020 13:40 0,7 C 91 % 1021,0 hPa 0,0 l/m 14,0 km/h (3 Bft) SW 232 0 mm -0,6 C -3,4 C 25,5 km/h (4 Bft) 98 %
30.11.2020 13:30 0,7 C 90 % 1021,3 hPa 0,0 l/m 13,5 km/h (3 Bft) S-SW 199 0 mm -0,7 C -3,3 C 25,5 km/h (4 Bft) 99 %
30.11.2020 13:20 0,7 C 90 % 1021,4 hPa 0,0 l/m 14,7 km/h (3 Bft) S-SW 205 0 mm -0,7 C -3,5 C 25,5 km/h (4 Bft) 99 %
30.11.2020 13:10 0,7 C 91 % 1021,4 hPa 0,0 l/m 11,4 km/h (2 Bft) S-SW 198 0 mm -0,6 C -2,8 C 27,4 km/h (4 Bft) 100 %
30.11.2020 13:00 0,7 C 91 % 1021,6 hPa 0,0 l/m 12,3 km/h (3 Bft) S-SW 195 0 mm -0,6 C -3,0 C 21,6 km/h (4 Bft) 100 %
30.11.2020 12:50 0,6 C 91 % 1021,9 hPa 0,0 l/m 11,9 km/h (2 Bft) S 190 0 mm -0,7 C -3,1 C 29,4 km/h (5 Bft) 98 %
30.11.2020 12:40 0,6 C 92 % 1022,0 hPa 0,0 l/m 13,1 km/h (3 Bft) S-SW 212 0 mm -0,5 C -3,3 C 27,4 km/h (4 Bft) 100 %
30.11.2020 12:30 0,4 C 92 % 1022,1 hPa 0,0 l/m 11,6 km/h (2 Bft) S-SW 206 0 mm -0,7 C -3,2 C 23,5 km/h (4 Bft) 99 %
30.11.2020 12:20 0,3 C 93 % 1022,4 hPa 0,0 l/m 12,6 km/h (3 Bft) S 189 0 mm -0,7 C -3,6 C 21,6 km/h (4 Bft) 99 %
30.11.2020 12:10 0,2 C 93 % 1022,6 hPa 0,0 l/m 12,9 km/h (3 Bft) S 190 0 mm -0,8 C -3,8 C 21,6 km/h (4 Bft) 100 %
30.11.2020 12:00 0,2 C 93 % 1023,0 hPa 0,0 l/m 9,4 km/h (2 Bft) S 186 0 mm -0,8 C -2,9 C 17,6 km/h (3 Bft) 100 %
30.11.2020 11:50 0,1 C 94 % 1023,0 hPa 0,0 l/m 9,5 km/h (2 Bft) S-SW 199 0 mm -0,7 C -3,1 C 19,6 km/h (3 Bft) 100 %
30.11.2020 11:40 -0,1 C 94 % 1023,2 hPa 0,0 l/m 11,8 km/h (2 Bft) S 188 0 mm -0,9 C -3,9 C 21,6 km/h (4 Bft) 100 %
30.11.2020 11:30 -0,1 C 94 % 1023,4 hPa 0,0 l/m 10,8 km/h (2 Bft) S-SW 198 0 mm -0,9 C -3,6 C 21,6 km/h (4 Bft) 100 %
30.11.2020 11:20 -0,2 C 94 % 1023,7 hPa 0,0 l/m 12,9 km/h (3 Bft) S-SW 192 0 mm -1,0 C -4,2 C 23,5 km/h (4 Bft) 100 %
30.11.2020 11:10 -0,1 C 94 % 1023,8 hPa 0,0 l/m 8,0 km/h (2 Bft) S-SW 192 0 mm -0,9 C -2,9 C 15,7 km/h (3 Bft) 99 %
30.11.2020 11:00 -0,3 C 94 % 1024,1 hPa 0,0 l/m 9,2 km/h (2 Bft) SW 214 0 mm -1,1 C -3,5 C 19,6 km/h (3 Bft) 100 %
30.11.2020 10:50 -0,3 C 94 % 1024,3 hPa 0,0 l/m 10,7 km/h (2 Bft) S-SW 210 0 mm -1,1 C -3,9 C 23,5 km/h (4 Bft) 100 %
30.11.2020 10:40 -0,3 C 93 % 1024,3 hPa 0,0 l/m 9,8 km/h (2 Bft) S-SW 211 0 mm -1,3 C -3,6 C 17,6 km/h (3 Bft) 98 %
30.11.2020 10:30 -0,4 C 93 % 1024,3 hPa 0,0 l/m 11,7 km/h (2 Bft) S-SW 213 0 mm -1,4 C -4,2 C 23,5 km/h (4 Bft) 100 %
30.11.2020 10:20 -0,4 C 93 % 1024,6 hPa 0,0 l/m 9,8 km/h (2 Bft) S-SW 211 0 mm -1,4 C -3,7 C 17,6 km/h (3 Bft) 100 %
30.11.2020 10:10 -0,5 C 93 % 1024,8 hPa 0,0 l/m 9,4 km/h (2 Bft) S-SW 209 0 mm -1,5 C -3,7 C 17,6 km/h (3 Bft) 98 %
30.11.2020 10:00 -0,5 C 93 % 1024,6 hPa 0,0 l/m 11,5 km/h (2 Bft) W-SW 240 0 mm -1,5 C -4,3 C 19,6 km/h (3 Bft) 98 %
30.11.2020 09:50 -0,5 C 94 % 1024,7 hPa 0,0 l/m 9,8 km/h (2 Bft) SW 225 0 mm -1,3 C -3,9 C 17,6 km/h (3 Bft) 100 %
30.11.2020 09:40 -0,5 C 94 % 1024,6 hPa 0,0 l/m 9,8 km/h (2 Bft) S-SW 197 0 mm -1,3 C -3,9 C 15,7 km/h (3 Bft) 99 %
30.11.2020 09:30 -0,5 C 94 % 1024,7 hPa 0,0 l/m 7,7 km/h (2 Bft) SW 220 0 mm -1,3 C -3,2 C 13,7 km/h (3 Bft) 99 %
30.11.2020 09:20 -0,5 C 94 % 1025,0 hPa 0,0 l/m 7,2 km/h (2 Bft) S-SW 195 0 mm -1,3 C -3,1 C 15,7 km/h (3 Bft) 98 %
30.11.2020 09:10 -0,5 C 94 % 1024,9 hPa 0,0 l/m 6,2 km/h (2 Bft) SW 227 0 mm -1,3 C -2,7 C 11,8 km/h (2 Bft) 100 %
30.11.2020 09:00 -0,6 C 94 % 1025,0 hPa 0,0 l/m 6,3 km/h (2 Bft) S-SW 209 0 mm -1,4 C -2,8 C 13,7 km/h (3 Bft) 99 %
30.11.2020 08:50 -0,7 C 94 % 1025,0 hPa 0,0 l/m 6,6 km/h (2 Bft) S-SW 194 0 mm -1,5 C -3,1 C 11,8 km/h (2 Bft) 99 %
30.11.2020 08:40 -0,7 C 94 % 1025,1 hPa 0,0 l/m 6,1 km/h (2 Bft) SW 227 0 mm -1,5 C -2,9 C 17,6 km/h (3 Bft) 100 %
30.11.2020 08:30 -0,8 C 94 % 1025,1 hPa 0,0 l/m 6,9 km/h (2 Bft) S-SW 202 0 mm -1,6 C -3,3 C 15,7 km/h (3 Bft) 100 %
30.11.2020 08:20 -0,9 C 94 % 1025,3 hPa 0,0 l/m 7,0 km/h (2 Bft) S-SW 200 0 mm -1,7 C -3,4 C 11,8 km/h (2 Bft) 98 %
30.11.2020 08:10 -0,9 C 94 % 1025,4 hPa 0,0 l/m 5,0 km/h (1 Bft) S-SW 204 0 mm -1,7 C -2,6 C 11,8 km/h (2 Bft) 100 %
30.11.2020 08:00 -1,0 C 94 % 1025,3 hPa 0,0 l/m 3,8 km/h (1 Bft) S 188 0 mm -1,8 C -1,0 C 9,8 km/h (2 Bft) 100 %
30.11.2020 07:50 -1,0 C 94 % 1025,4 hPa 0,0 l/m 4,6 km/h (1 Bft) S 189 0 mm -1,8 C -2,5 C 11,8 km/h (2 Bft) 99 %
30.11.2020 07:40 -1,0 C 94 % 1025,7 hPa 0,0 l/m 3,4 km/h (1 Bft) S 171 0 mm -1,8 C -1,0 C 7,8 km/h (2 Bft) 98 %
30.11.2020 07:30 -1,1 C 94 % 1025,7 hPa 0,0 l/m 3,7 km/h (1 Bft) S 177 0 mm -1,9 C -1,1 C 7,8 km/h (2 Bft) 100 %
30.11.2020 07:20 -1,1 C 95 % 1025,8 hPa 0,0 l/m 2,4 km/h (1 Bft) S 187 0 mm -1,8 C -1,1 C 5,9 km/h (2 Bft) 100 %
30.11.2020 07:10 -1,1 C 95 % 1025,8 hPa 0,0 l/m 0,8 km/h (0 Bft) S 183 0 mm -1,8 C -1,1 C 3,9 km/h (1 Bft) 99 %
30.11.2020 07:00 -1,2 C 95 % 1025,9 hPa 0,0 l/m 0,7 km/h (0 Bft) S 181 0 mm -1,9 C -1,2 C 3,9 km/h (1 Bft) 99 %
30.11.2020 06:50 -1,2 C 95 % 1026,0 hPa 0,0 l/m 2,3 km/h (1 Bft) S 181 0 mm -1,9 C -1,2 C 5,9 km/h (2 Bft) 99 %
30.11.2020 06:40 -1,3 C 95 % 1025,9 hPa 0,0 l/m 1,1 km/h (1 Bft) S 182 0 mm -2,0 C -1,3 C 7,8 km/h (2 Bft) 99 %
30.11.2020 06:30 -1,4 C 95 % 1025,8 hPa 0,0 l/m 1,2 km/h (1 Bft) S-SO 159 0 mm -2,1 C -1,4 C 3,9 km/h (1 Bft) 100 %
30.11.2020 06:20 -1,6 C 95 % 1025,9 hPa 0,0 l/m 1,0 km/h (0 Bft) S-SO 159 0 mm -2,3 C -1,6 C 3,9 km/h (1 Bft) 100 %
30.11.2020 06:10 -1,7 C 95 % 1025,9 hPa 0,0 l/m 0,9 km/h (0 Bft) S-SO 159 0 mm -2,4 C -1,7 C 3,9 km/h (1 Bft) 100 %
30.11.2020 06:00 -1,9 C 95 % 1025,8 hPa 0,0 l/m 2,1 km/h (1 Bft) S-SO 159 0 mm -2,6 C -1,9 C 7,8 km/h (2 Bft) 99 %
30.11.2020 05:50 -2,2 C 95 % 1026,0 hPa 0,0 l/m 0,3 km/h (0 Bft) S-SO 153 0 mm -2,9 C -2,2 C 3,9 km/h (1 Bft) 100 %
30.11.2020 05:40 -2,4 C 95 % 1026,1 hPa 0,0 l/m 0,0 km/h (0 Bft) S-SO 150 0 mm -3,1 C -2,4 C 2,0 km/h (1 Bft) 99 %
30.11.2020 05:30 -2,6 C 95 % 1026,2 hPa 0,0 l/m 0,0 km/h (0 Bft) S-SO 150 0 mm -3,3 C -2,6 C 0,0 km/h (0 Bft) 99 %
30.11.2020 05:20 -2,7 C 95 % 1026,2 hPa 0,0 l/m 0,0 km/h (0 Bft) S-SO 150 0 mm -3,4 C -2,7 C 0,0 km/h (0 Bft) 99 %
30.11.2020 05:10 -2,9 C 94 % 1026,2 hPa 0,0 l/m 0,0 km/h (0 Bft) S-SO 150 0 mm -3,7 C -2,9 C 0,0 km/h (0 Bft) 100 %
30.11.2020 05:00 -2,9 C 94 % 1026,3 hPa 0,0 l/m 0,0 km/h (0 Bft) S-SO 150 0 mm -3,7 C -2,9 C 0,0 km/h (0 Bft) 99 %
30.11.2020 04:50 -2,9 C 94 % 1026,4 hPa 0,0 l/m 0,0 km/h (0 Bft) S-SO 150 0 mm -3,7 C -2,9 C 0,0 km/h (0 Bft) 100 %
30.11.2020 04:40 -3,0 C 94 % 1026,5 hPa 0,0 l/m 0,0 km/h (0 Bft) S-SO 150 0 mm -3,8 C -3,0 C 0,0 km/h (0 Bft) 98 %
30.11.2020 04:30 -3,0 C 94 % 1026,4 hPa 0,0 l/m 0,5 km/h (0 Bft) S-SO 150 0 mm -3,8 C -3,0 C 3,9 km/h (1 Bft) 100 %
30.11.2020 04:20 -3,1 C 94 % 1026,4 hPa 0,0 l/m 0,0 km/h (0 Bft) O 80 0 mm -3,9 C -3,1 C 0,0 km/h (0 Bft) 100 %
30.11.2020 04:10 -3,1 C 94 % 1026,5 hPa 0,0 l/m 0,0 km/h (0 Bft) O 80 0 mm -3,9 C -3,1 C 0,0 km/h (0 Bft) 99 %
30.11.2020 04:00 -3,1 C 93 % 1026,6 hPa 0,0 l/m 0,0 km/h (0 Bft) O 80 0 mm -4,1 C -3,1 C 0,0 km/h (0 Bft) 100 %
30.11.2020 03:50 -3,0 C 93 % 1026,7 hPa 0,0 l/m 0,0 km/h (0 Bft) O 80 0 mm -4,0 C -3,0 C 0,0 km/h (0 Bft) 100 %
30.11.2020 03:40 -2,9 C 94 % 1026,7 hPa 0,0 l/m 0,0 km/h (0 Bft) O 80 0 mm -3,7 C -2,9 C 0,0 km/h (0 Bft) 99 %
30.11.2020 03:30 -2,8 C 94 % 1026,7 hPa 0,0 l/m 0,0 km/h (0 Bft) O 80 0 mm -3,6 C -2,8 C 0,0 km/h (0 Bft) 99 %
30.11.2020 03:20 -2,8 C 93 % 1026,7 hPa 0,0 l/m 0,0 km/h (0 Bft) O 80 0 mm -3,8 C -2,8 C 0,0 km/h (0 Bft) 100 %
30.11.2020 03:10 -2,7 C 93 % 1026,9 hPa 0,0 l/m 0,0 km/h (0 Bft) O 80 0 mm -3,7 C -2,7 C 0,0 km/h (0 Bft) 99 %
30.11.2020 03:00 -2,6 C 93 % 1027,0 hPa 0,0 l/m 0,0 km/h (0 Bft) O 80 0 mm -3,6 C -2,6 C 0,0 km/h (0 Bft) 100 %
30.11.2020 02:50 -2,4 C 93 % 1027,0 hPa 0,0 l/m 0,0 km/h (0 Bft) O 80 0 mm -3,4 C -2,4 C 0,0 km/h (0 Bft) 99 %
30.11.2020 02:40 -2,4 C 93 % 1027,1 hPa 0,0 l/m 0,0 km/h (0 Bft) O 80 0 mm -3,4 C -2,4 C 0,0 km/h (0 Bft) 99 %
30.11.2020 02:30 -2,3 C 93 % 1027,1 hPa 0,0 l/m 0,0 km/h (0 Bft) O 80 0 mm -3,3 C -2,3 C 0,0 km/h (0 Bft) 99 %
30.11.2020 02:20 -2,3 C 93 % 1027,2 hPa 0,0 l/m 0,0 km/h (0 Bft) O 80 0 mm -3,3 C -2,3 C 0,0 km/h (0 Bft) 99 %
30.11.2020 02:10 -2,3 C 93 % 1027,2 hPa 0,0 l/m 0,0 km/h (0 Bft) O 80 0 mm -3,3 C -2,3 C 0,0 km/h (0 Bft) 100 %
30.11.2020 02:00 -2,3 C 93 % 1027,2 hPa 0,0 l/m 0,0 km/h (0 Bft) O 80 0 mm -3,3 C -2,3 C 0,0 km/h (0 Bft) 100 %
30.11.2020 01:50 -2,3 C 93 % 1027,2 hPa 0,0 l/m 0,0 km/h (0 Bft) O 80 0 mm -3,3 C -2,3 C 0,0 km/h (0 Bft) 98 %
30.11.2020 01:40 -2,2 C 93 % 1027,2 hPa 0,0 l/m 0,0 km/h (0 Bft) O 80 0 mm -3,2 C -2,2 C 0,0 km/h (0 Bft) 100 %
30.11.2020 01:30 -2,1 C 93 % 1027,0 hPa 0,0 l/m 0,0 km/h (0 Bft) O 80 0 mm -3,1 C -2,1 C 0,0 km/h (0 Bft) 99 %
30.11.2020 01:20 -2,0 C 92 % 1027,2 hPa 0,0 l/m 0,0 km/h (0 Bft) O 80 0 mm -3,1 C -2,0 C 0,0 km/h (0 Bft) 100 %
30.11.2020 01:10 -1,8 C 92 % 1027,2 hPa 0,0 l/m 0,0 km/h (0 Bft) O 80 0 mm -2,9 C -1,8 C 0,0 km/h (0 Bft) 99 %
30.11.2020 01:00 -1,7 C 92 % 1027,3 hPa 0,0 l/m 0,0 km/h (0 Bft) O 80 0 mm -2,8 C -1,7 C 0,0 km/h (0 Bft) 99 %
30.11.2020 00:50 -1,5 C 92 % 1027,3 hPa 0,0 l/m 0,0 km/h (0 Bft) O 80 0 mm -2,6 C -1,5 C 0,0 km/h (0 Bft) 99 %
30.11.2020 00:40 -1,3 C 92 % 1027,4 hPa 0,0 l/m 0,0 km/h (0 Bft) O 80 0 mm -2,4 C -1,3 C 0,0 km/h (0 Bft) 100 %
30.11.2020 00:30 -1,1 C 92 % 1027,3 hPa 0,0 l/m 0,0 km/h (0 Bft) O 80 0 mm -2,2 C -1,1 C 0,0 km/h (0 Bft) 100 %
30.11.2020 00:20 -0,9 C 92 % 1027,5 hPa 0,0 l/m 0,0 km/h (0 Bft) O 80 0 mm -2,0 C -0,9 C 0,0 km/h (0 Bft) 100 %
30.11.2020 00:00 -0,6 C 92 % 1027,8 hPa 0,0 l/m 0,0 km/h (0 Bft) O 80 0 mm -1,7 C -0,6 C 0,0 km/h (0 Bft) 100 %
29.11.2020 23:50 -0,5 C 92 % 1027,8 hPa 0,0 l/m 0,0 km/h (0 Bft) O 80 0 mm -1,6 C -0,5 C 0,0 km/h (0 Bft) 99 %
29.11.2020 23:40 -0,5 C 93 % 1027,8 hPa 0,0 l/m 0,0 km/h (0 Bft) O 80 0 mm -1,5 C -0,5 C 0,0 km/h (0 Bft) 99 %
29.11.2020 23:30 -0,6 C 92 % 1028,0 hPa 0,0 l/m 0,0 km/h (0 Bft) O 80 0 mm -1,7 C -0,6 C 0,0 km/h (0 Bft) 99 %
29.11.2020 23:20 -0,7 C 92 % 1028,0 hPa 0,0 l/m 0,0 km/h (0 Bft) O 80 0 mm -1,8 C -0,7 C 0,0 km/h (0 Bft) 99 %
29.11.2020 23:10 -0,7 C 92 % 1027,9 hPa 0,0 l/m 0,0 km/h (0 Bft) O 80 0 mm -1,8 C -0,7 C 0,0 km/h (0 Bft) 100 %
29.11.2020 23:00 -0,8 C 92 % 1028,0 hPa 0,0 l/m 0,0 km/h (0 Bft) O 80 0 mm -1,9 C -0,8 C 0,0 km/h (0 Bft) 100 %
29.11.2020 22:46 -0,8 C 91 % 1028,0 hPa 0,0 l/m 0,0 km/h (0 Bft) O 80 0 mm -2,1 C -0,8 C 0,0 km/h (0 Bft) 96 %
29.11.2020 22:45 -0,8 C 91 % 1028,0 hPa 0,0 l/m 0,0 km/h (0 Bft) O 80 0 mm -2,1 C -0,8 C 0,0 km/h (0 Bft) 99 %
29.11.2020 22:30 -0,7 C 90 % 1027,8 hPa 0,0 l/m 0,0 km/h (0 Bft) O 80 0 mm -2,1 C -0,7 C 0,0 km/h (0 Bft) 99 %
29.11.2020 22:20 -0,4 C 90 % 1027,8 hPa 0,0 l/m 0,0 km/h (0 Bft) O 80 0 mm -1,8 C -0,4 C 0,0 km/h (0 Bft) 98 %
29.11.2020 22:10 -0,3 C 90 % 1028,0 hPa 0,0 l/m 0,0 km/h (0 Bft) O 80 0 mm -1,7 C -0,3 C 0,0 km/h (0 Bft) 99 %
29.11.2020 22:04 -0,3 C 89 % 1028,0 hPa 0,0 l/m 0,0 km/h (0 Bft) O 80 0 mm -1,9 C -0,3 C 0,0 km/h (0 Bft) 98 %
29.11.2020 21:50 0,1 C 89 % 1028,0 hPa 0,0 l/m 0,0 km/h (0 Bft) O 80 0 mm -1,5 C 0,1 C 0,0 km/h (0 Bft) 99 %
29.11.2020 21:40 0,3 C 89 % 1028,0 hPa 0,0 l/m 0,0 km/h (0 Bft) O 80 0 mm -1,3 C 0,3 C 0,0 km/h (0 Bft) 99 %
29.11.2020 21:30 0,4 C 89 % 1028,1 hPa 0,0 l/m 0,0 km/h (0 Bft) O 80 0 mm -1,2 C 0,4 C 0,0 km/h (0 Bft) 100 %
29.11.2020 21:24 0,5 C 89 % 1028,1 hPa 0,0 l/m 0,0 km/h (0 Bft) O 80 0 mm -1,1 C 0,5 C 0,0 km/h (0 Bft) 100 %
29.11.2020 21:10 0,7 C 88 % 1028,0 hPa 0,0 l/m 0,0 km/h (0 Bft) O 80 0 mm -1,1 C 0,7 C 0,0 km/h (0 Bft) 100 %
29.11.2020 21:05 0,8 C 88 % 1027,9 hPa 0,0 l/m 0,0 km/h (0 Bft) O 80 0 mm -1,0 C 0,8 C 0,0 km/h (0 Bft) 100 %
29.11.2020 20:50 1,2 C 87 % 1027,9 hPa 0,0 l/m 0,0 km/h (0 Bft) O 80 0 mm -0,7 C 1,2 C 0,0 km/h (0 Bft) 100 %
29.11.2020 20:48 1,2 C 88 % 1027,9 hPa 0,0 l/m 0,0 km/h (0 Bft) O 80 0 mm -0,6 C 1,2 C 0,0 km/h (0 Bft) 100 %
29.11.2020 20:45 1,2 C 88 % 1028,0 hPa 0,0 l/m 1,5 km/h (1 Bft) O 80 0 mm -0,6 C 1,2 C 7,8 km/h (2 Bft) 100 %
29.11.2020 20:10 1,4 C 89 % 1028,0 hPa 0,0 l/m 2,0 km/h (1 Bft) O 90 0 mm -0,2 C 1,4 C 5,9 km/h (2 Bft) 100 %
29.11.2020 20:00 1,3 C 90 % 1028,0 hPa 0,0 l/m 0,0 km/h (0 Bft) O 90 0 mm -0,2 C 1,3 C 3,9 km/h (1 Bft) 100 %
29.11.2020 19:50 1,3 C 90 % 1028,0 hPa 0,0 l/m 0,0 km/h (0 Bft) O 90 0 mm -0,2 C 1,3 C 3,9 km/h (1 Bft) 100 %
29.11.2020 19:49 1,2 C 90 % 1028,0 hPa 0,0 l/m 0,2 km/h (0 Bft) O 80 0 mm -0,3 C 1,2 C 3,9 km/h (1 Bft) 100 %
29.11.2020 19:20 1,0 C 90 % 1028,0 hPa 0,0 l/m 0,0 km/h (0 Bft) O 80 0 mm -0,5 C 1,0 C 0,0 km/h (0 Bft) 99 %
29.11.2020 19:10 0,9 C 90 % 1028,0 hPa 0,0 l/m 0,0 km/h (0 Bft) O 80 0 mm -0,6 C 0,9 C 0,0 km/h (0 Bft) 99 %
29.11.2020 19:00 0,8 C 90 % 1028,0 hPa 0,0 l/m 0,0 km/h (0 Bft) N 0 0 mm -0,6 C 0,8 C 0,0 km/h (0 Bft) 100 %
29.11.2020 18:50 0,7 C 90 % 1028,1 hPa 0,0 l/m 2,0 km/h (1 Bft) O 90 0 mm -0,7 C 0,7 C 3,9 km/h (1 Bft) 100 %
29.11.2020 18:40 0,5 C 89 % 1028,0 hPa 0,0 l/m 0,0 km/h (0 Bft) O 80 0 mm -1,1 C 0,5 C 2,0 km/h (1 Bft) 99 %
29.11.2020 18:30 0,6 C 88 % 1027,9 hPa 0,0 l/m 0,0 km/h (0 Bft) O 80 0 mm -1,2 C 0,6 C 2,0 km/h (1 Bft) 100 %
29.11.2020 18:20 0,7 C 88 % 1027,9 hPa 0,0 l/m 0,3 km/h (0 Bft) O 80 0 mm -1,1 C 0,7 C 3,9 km/h (1 Bft) 100 %
29.11.2020 18:10 0,8 C 87 % 1027,8 hPa 0,0 l/m 0,7 km/h (0 Bft) O 80 0 mm -1,1 C 0,8 C 3,9 km/h (1 Bft) 99 %
29.11.2020 18:00 1,0 C 86 % 1027,7 hPa 0,0 l/m 0,0 km/h (0 Bft) O 80 0 mm -1,1 C 1,0 C 0,0 km/h (0 Bft) 100 %
29.11.2020 17:50 1,2 C 86 % 1027,7 hPa 0,0 l/m 0,0 km/h (0 Bft) O 80 0 mm -0,9 C 1,2 C 0,0 km/h (0 Bft) 99 %
29.11.2020 17:40 1,4 C 84 % 1027,6 hPa 0,0 l/m 0,0 km/h (0 Bft) O 80 0 mm -1,0 C 1,4 C 0,0 km/h (0 Bft) 100 %
29.11.2020 17:30 1,7 C 84 % 1027,5 hPa 0,0 l/m 0,8 km/h (0 Bft) O 80 0 mm -0,7 C 1,7 C 3,9 km/h (1 Bft) 99 %
29.11.2020 17:20 1,9 C 83 % 1027,4 hPa 0,0 l/m 0,0 km/h (0 Bft) O 80 0 mm -0,7 C 1,9 C 0,0 km/h (0 Bft) 100 %
29.11.2020 17:10 2,2 C 82 % 1027,3 hPa 0,0 l/m 0,0 km/h (0 Bft) O 80 0 mm -0,5 C 2,2 C 0,0 km/h (0 Bft) 100 %
29.11.2020 17:00 2,6 C 80 % 1027,2 hPa 0,0 l/m 0,3 km/h (0 Bft) O 80 0 mm -0,5 C 2,6 C 2,0 km/h (1 Bft) 100 %
29.11.2020 16:50 2,9 C 79 % 1027,3 hPa 0,0 l/m 0,8 km/h (0 Bft) O 80 0 mm -0,4 C 2,9 C 5,9 km/h (2 Bft) 100 %
29.11.2020 16:40 3,3 C 79 % 1027,3 hPa 0,0 l/m 1,9 km/h (1 Bft) O-NO 74 0 mm 0,0 C 3,3 C 5,9 km/h (2 Bft) 99 %
29.11.2020 16:30 3,7 C 78 % 1027,3 hPa 0,0 l/m 2,6 km/h (1 Bft) O-NO 74 0 mm 0,2 C 3,7 C 5,9 km/h (2 Bft) 100 %
29.11.2020 16:20 4,1 C 77 % 1027,3 hPa 0,0 l/m 1,3 km/h (1 Bft) O 90 0 mm 0,4 C 4,1 C 5,9 km/h (2 Bft) 100 %
29.11.2020 16:10 4,4 C 76 % 1027,3 hPa 0,0 l/m 2,3 km/h (1 Bft) O-NO 78 0 mm 0,5 C 4,4 C 5,9 km/h (2 Bft) 98 %
29.11.2020 16:00 4,8 C 75 % 1027,2 hPa 0,0 l/m 3,9 km/h (1 Bft) O 90 0 mm 0,8 C 4,8 C 9,8 km/h (2 Bft) 100 %
29.11.2020 15:50 5,2 C 74 % 1027,0 hPa 0,0 l/m 5,0 km/h (1 Bft) NO 49 0 mm 1,0 C 4,3 C 11,8 km/h (2 Bft) 100 %
29.11.2020 15:40 5,5 C 73 % 1026,8 hPa 0,0 l/m 4,8 km/h (1 Bft) O 82 0 mm 1,1 C 4,7 C 11,8 km/h (2 Bft) 100 %
29.11.2020 15:30 5,9 C 71 % 1026,8 hPa 0,0 l/m 4,9 km/h (1 Bft) O 98 0 mm 1,1 C 5,1 C 11,8 km/h (2 Bft) 100 %
29.11.2020 15:20 6,1 C 70 % 1027,3 hPa 0,0 l/m 4,6 km/h (1 Bft) O 88 0 mm 1,0 C 5,5 C 11,8 km/h (2 Bft) 99 %
29.11.2020 15:10 6,3 C 70 % 1026,8 hPa 0,0 l/m 5,3 km/h (1 Bft) O-SO 103 0 mm 1,2 C 5,5 C 13,7 km/h (3 Bft) 98 %
29.11.2020 15:00 6,4 C 70 % 1026,2 hPa 0,0 l/m 4,6 km/h (1 Bft) O-NO 78 0 mm 1,3 C 5,8 C 11,8 km/h (2 Bft) 100 %
_ Min-Zeit 04:00 15:00 14:20 - 17:10 - - - 04:00 10:00 17:10 22:46
Minimum _ -3,1 C 70 % 1020,1 hPa - 0,0 km/h (0 Bft) - - - -4,1 C -4,3 C 0,0 km/h (0 Bft) 96 %
_ Max-Zeit 15:00 05:20 18:50 14:10 13:50 - - 15:00 15:00 15:00 12:50 15:00
Maximum _ 6,6 C 95 % 1028,1 hPa 0,2 l/m 14,9 km/h
S-SW (3 Bft)
- - 0 mm 1,3 C 5,8 C 29,4 km/h
S-SO (5 Bft)
100 %
Durchschnitt _ 0,3 C 89 % 1026,1 hPa #0,2 l/m 3,5 km/h (1 Bft) O - #0,000 mm -1,3 C -0,6 C 7,7 km/h (2 Bft) 99 %